AirNav   ProFlight Series 2 Aviation Headset
 
 825 users online  

6NY7 Piolis Brookside Airport
Kerhonkson, New York, USA

GOING TO KERHONKSON?


FAA INFORMATION EFFECTIVE 13 AUGUST 2020

Location

FAA Identifier: 6NY7
Lat/Long: 41-51-55.3340N 074-19-58.5420W
41-51.922233N 074-19.975700W
41.8653706,-74.3329283
(estimated)
Elevation: 1060 ft. / 323 m (estimated)
Variation: 13W (1985)
From city: 6 miles NW of KERHONKSON, NY
Time zone: UTC -4 (UTC -5 during Standard Time)
Zip code: 12446

Airport Operations

Airport use: Private use. Permission required prior to landing
Activation date: 02/1966
Control tower: no
ARTCC: NEW YORK CENTER
FSS: NEW YORK FLIGHT SERVICE STATION
Attendance: IREG
Wind indicator: yes
Segmented circle: no

Nearby radio navigation aids

VOR radial/distance  VOR name  Freq  Var
IGNr310/25.8KINGSTON VOR/DME117.6012W
HUOr034/29.7HUGUENOT VOR/DME116.1011W
PWLr292/33.2PAWLING VOR/DME114.3012W
DNYr135/33.6DELANCEY VOR/DME112.1011W

 
NDB name  Hdg/Dist  Freq  Var  ID
STANWYCK339/24.026112WSKU ... -.- ..-
PHILMONT242/35.827213WPFH .--. ..-. ....

Airport Services

Airframe service: NONE
Powerplant service: NONE

Runway Information

Runway 14/32

Dimensions: 2600 x 75 ft. / 792 x 23 m
Surface: turf
Operational restrictions: LAND ON RWY 32, TAKEOFF ON RWY 14.
RUNWAY 14  RUNWAY 32
Traffic pattern: leftleft
Obstructions: trees hillhill

Airport Ownership and Management from official FAA records

Ownership: Privately-owned
Owner: LAWRENCE PIOLI
RR 2 BOX 640
KERHONKSON, NY 12446
Phone 914-626-7000

Airport Operational Statistics

Aircraft based on the field: 2
Single engine airplanes: 2
    

Additional Remarks

BE ALERT FOR STEEP HILL ON APCH END RY 32.
FOR CD CTC NEW YORK APCH AT 516-683-2448.

Instrument Procedures

There are no published instrument procedures at 6NY7.

Some nearby airports with instrument procedures:

N89 - Joseph Y Resnick Airport (8 nm S)
N82 - Wurtsboro-Sullivan County Airport (17 nm S)
20N - Kingston-Ulster Airport (18 nm NE)
KMGJ - Orange County Airport (21 nm S)
KMSV - Sullivan County International Airport (23 nm SW)
 
Loc | Ops | Rwys | IFR | FBO | Links
Com | Nav | Svcs | Stats | Notes
Area around 6NY7 (Piolis Brookside Airport)
 
Road maps at: MapQuest Bing Google
 
Aerial photo
No photo
 
Sectional chart

 
Airport distance calculator
Flying to Piolis Brookside Airport? Find the distance to fly.

From to 6NY7

Sunrise and sunset
Times for 13-Aug-2020
 Local
(UTC-4)
 Zulu
(UTC)
Morning civil twilight05:3509:35
Sunrise06:0510:05
Sunset19:5923:59
Evening civil twilight20:2900:29

Current date and time
Zulu (UTC)  13-Aug-2020 12:17:21
Local (UTC-4)  13-Aug-2020 08:17:21
 
METAR
KMGJ 
21nm S 
SuperAWOS
131154Z AUTO 01003KT 10SM FEW070 21/18 A3013 RMK AO2 SLP200 T02060178 10206 20178 51009
KMSV 
22nm SW 
131156Z AUTO 36003KT 10SM CLR 18/16 A3019 RMK AO2 SLP216 T01780156 10178 20156 53010
KPOU 
24nm SE 
131153Z 01004KT 10SM BKN075 22/17 A3012 RMK AO2 SLP194 T02170167 10222 20194 51010
KSWF 
25nm SE 
131145Z 00000KT 10SM SCT040 BKN070 23/17 A3013
TAF
KPOU 
24nm SE 
131144Z 1312/1412 VRB03KT P6SM BKN080 FM131700 04005KT P6SM SCT040 SCT100 FM132300 VRB03KT P6SM SCT250 TEMPO 1407/1411 4SM BR SCT003 SCT250
KSWF 
25nm SE 
131139Z 1312/1418 09006KT P6SM FEW045 SCT080 BKN150 FM131400 10006KT P6SM SCT045 BKN150 FM132000 13005KT P6SM SCT045 BKN150 FM140000 VRB03KT P6SM BKN150 FM140300 VRB03KT P6SM FEW040 SCT150 FM141600 08005KT P6SM VCSH SCT030 BKN100 AMD NOT SKED
NOTAMs
Click for the latest NOTAMs
NOTAMs are issued by the DoD/FAA and will open in a separate window not controlled by AirNav.

 

 
 

Would you like to see your business listed on this page?

 If your business provides an interesting product or service to pilots, flight crews, aircraft, or users of the Piolis Brookside Airport, you should consider listing it here.  To start the listing process, click on the button below
 
Add a business
 

Other Pages about Piolis Brookside Airport

Update a link
 
Copyright © AirNav, LLC. All rights reserved. Privacy Policy  Contact